646  
SXUS52 KCHS 260827  
OSOCHS  
 
MARINE OBSERVATIONS  
NATIONAL WEATHER SERVICE CHARLESTON SC  
400 AM EDT SUN MAR 26 2017  
   
..DOWNTOWN CHARLESTON AND HARBOR
 
 
 
CITY SKY/WX TMP DP RH WIND PRES REMARKS  
WATERFRONT PRK N/A 62 60 93 SE7 30.17F  
   
..LAKE MOULTRIE
 
 
 
CITY SKY/WX TMP DP RH WIND PRES REMARKS  
PINOPOLIS N/A 61 57 88 CALM 30.08F  
   
..LAKE AND SUPPLEMENTAL COASTAL OBSERVATIONS
 
 
 
STATION/POSITION TIME TEMP WIND PRES WAVE SWELL  
AIR SEA DIR/SP/G HT/PER HT/PER/DIR  
(UTC) (F) (DEG/KT/KT) (MB) (FT/S) (FT/S/D)  
FORT PULASKI 0800 64 62 150/ 3/ 5 1021.6  
SAPELO ISLAND 0800 63 CALM 1021.0  
WINYAH BAY 0730 61 260/ 1 1022.0F  
LAKE MURRAY 0820 60 100/ 2/ 3 1020.7  
ACE BASIN NERRS 0730 61 150/ 1 1022.0S  
 
   
..C-MAN AND BUOY OBSERVATIONS
 
 
 
STATION/POSITION TIME TEMP WIND PRES WAVE SWELL  
AIR SEA DIR/SP/G HT/PER HT/PER/DIR  
(UTC) (F) (DEG/KT/KT) (MB) (FT/S) (FT/S/D)  
BUOY 41004 0750 70 71 150/ 14/ 17 1021.6F 5/ 8 3/140/ 8  
BUOY 41008 0750 63 62 100/ 6/ 6 1020.6F 4/ 8 3/130/ 8  
FOLLY BEACH CMAN 0800 63 130/ 8/ 8 1022.2F  
CAPERS NS BUOY 0808 62 190/ 2/ 6 1021.6F  
FRIPP NS BUOY 0808 62 60 130/ 4/ 8 1021.0F  
5E ST. MARYS GA 0800 64 N/A 4/ 9  
 
 
STATION/POSITION TIME TEMP WIND PRES WAVE SWELL  
AIR SEA DIR/SP/G HT/PER HT/PER/DIR  
(UTC) (F) (DEG/KT/KT) (MB) (FT/S) (FT/S/D)  
FRYING PAN BUOY 0810 70 74 150/ 16/ 19 1022.5  
BUOY 41025 0750 69 76 170/ 16/ 17 1023.7F 3/ 5 2/140/ 7  
CAPE LOOKOUT NC 0800 65 160/ 10/ 11 1023.0F  
BUOY 41002 0750 67 72 100/ 14/ 17 1023.5F 5/ 8 3/120/ 8  
BUOY 41010 NOT AVBL  
ST AUGUSTINE FL 0800 66 67 210/ 3/ 3 1021.1F  
 

 
 
 
CLICK HERE TO GO TO PREVIOUS BULLETINS.

The Nexlab SC Page
The Nexlab GA Page Main Text Page